This is the latest recevied weather packets stored in our database for station/object SV9TNF-52. If no packets are shown the sender has not sent any weather packets the latest 10 day(s).
| Time | Temp. | Humidity | Pressure | Rain* | Wind** | Luminosity | Snow |
|---|---|---|---|---|---|---|---|
| 1788256693 | 31.67° C | 49% | 1020 hPa | 0 mm | 5.81 m/s, 18° | - | - |
| 1788256393 | 31.67° C | 50% | 1020 hPa | 0 mm | 3.13 m/s, 256° | - | - |
| 1788256093 | 31.67° C | 50% | 1020 hPa | 0 mm | 8.05 m/s, 15° | - | - |
| 1788255793 | 30.56° C | 54% | 1020 hPa | 0 mm | 1.79 m/s, 161° | - | - |
| 1788255493 | 30° C | 55% | 1020 hPa | 0 mm | 4.92 m/s, 233° | - | - |
| 1788255219 | 30° C | 57% | 1020 hPa | 0 mm | 5.36 m/s, 8° | - | - |
| 1788254893 | 29.44° C | 57% | 1020 hPa | 0 mm | 2.68 m/s, 169° | - | - |
| 1788254593 | 29.44° C | 57% | 1020 hPa | 0 mm | 7.15 m/s, 43° | - | - |
| 1788254293 | 29.44° C | 58% | 1020 hPa | 0 mm | 10.73 m/s, 47° | - | - |
| 1788253993 | 30° C | 59% | 1020 hPa | 0 mm | 6.26 m/s, 327° | - | - |
| 1788253692 | 29.44° C | 58% | 1020 hPa | 0 mm | 8.05 m/s, 339° | - | - |
| 1788253392 | 30° C | 59% | 1020 hPa | 0 mm | 3.13 m/s, 6° | - | - |
| 1788253092 | 30° C | 57% | 1020 hPa | 0 mm | 6.26 m/s, 156° | - | - |
| 1788252792 | 30° C | 56% | 1020 hPa | 0 mm | 6.26 m/s, 318° | - | - |
| 1788252492 | 29.44° C | 57% | 1020 hPa | 0 mm | 10.28 m/s, 355° | - | - |
| 1788252192 | 30° C | 56% | 1020 hPa | 0 mm | 6.26 m/s, 339° | - | - |
| 1788251892 | 29.44° C | 58% | 1020 hPa | 0 mm | 4.92 m/s, 26° | - | - |
| 1788251591 | 29.44° C | 58% | 1020 hPa | 0 mm | 4.92 m/s, 32° | - | - |
| 1788251292 | 31.11° C | 53% | 1020 hPa | 0 mm | 1.79 m/s, 325° | - | - |
| 1788250992 | 29.44° C | 55% | 1020 hPa | 0 mm | 5.36 m/s, 0° | - | - |
| 1788250691 | 29.44° C | 58% | 1020 hPa | 0 mm | 12.96 m/s, 46° | - | - |
| 1788250392 | 30° C | 61% | 1020 hPa | 0 mm | 1.79 m/s, 247° | - | - |
| 1788250091 | 30° C | 59% | 1020 hPa | 0 mm | 8.05 m/s, 340° | - | - |
| 1788249791 | 30.56° C | 61% | 1020 hPa | 0 mm | 3.13 m/s, 233° | - | - |
| 1788249491 | 29.44° C | 61% | 1020 hPa | 0 mm | 4.92 m/s, 190° | - | - |
* Rain latest hour (hover to see other rain measurements)
** Current wind speed in m/s (hover to see current wind gust speed)